Location: Newark
(46.8500°N, 5.1667°E)
Time: 03:08:07
(UTC+00:00)

N. Korean satellite - Visible Passes

Search period start: 20 September 2019 00:00
Search period end: 30 September 2019 00:00
Orbit: 455 x 509 km, 97.2° (Epoch: 18 September)

Date Brightness Start Highest point End Pass type
(mag) Time Alt. Az. Time Alt. Az. Time Alt. Az.
21 Sep 10.1 04:35:54 10° ENE 04:37:23 12° E 04:38:50 10° ESE visible
24 Sep 9.7 04:52:39 10° NE 04:55:13 20° E 04:57:48 10° SE visible
25 Sep 10.6 04:29:36 10° E 04:29:46 10° E 04:29:57 10° E visible
28 Sep 9.8 04:45:21 10° NE 04:47:37 16° E 04:49:52 10° SE visible
